Starlink 11439

operational
NORAD ID: 62419 Int'l Des: 2024-249 Owner: SPXS Country: US Constellation: starlink
LEOCIRCULAR

About Starlink 11439

Description loading...

Live Position

Loading 3D Globe...

Upcoming Passes

Altitude History

Altitude vs Time

uPlot chart will show altitude changes over time

Two-Line Element Set

1 62419U 24249L 25307.73572955 .00403722 00000-0 29719-2 0 9991
2 62419 43.0005 206.6564 0001462 228.0181 132.0562 15.71060399 49676
Epoch: Nov 3, 2025 • Age: 22 hours

Current Status

Altitude 352.7 km
Velocity 7.70 km/s
Sub-Earth Point 4.31°N, 96.11°E
Launch Date Dec 23, 2024
Age 0.8 years
Type internet

Technical Details

Classification Payload
Mass 960.00 kg
Dry Mass 910.00 kg
Total Mass 960.00 kg
Length 0.30 m
Diameter 4.10 m
Span 29.00 m
Shape Box + pan
Manufacturer SPXS
Bus Type Starlink V2MD
Phase Status In Orbit
Owner/State SPXS/US

Large Constellations

Loading constellations...